sat.trackr.live / text

‹ back to catalog

STARLINK-37910

NORAD 69961 · 2026-157U

PAYLOAD ACTIVE UNKNOWN

§ Identity

Operator
Country
US
Launch date
2026-07-09
Launch site
AFETR
Launch vehicle
Mass (kg)
RCS (m²)

Purposes: comms

External: N2YO · Heavens-Above · Gunter

§ Orbital elements

Epoch: 2026-09-19T22:24:07.532064Z

Period
93.85 min
Inclination
53.1599°
Eccentricity
0.0000974
Mean motion
15.34399958 rev/d
Perigee alt
462.0 km
Apogee alt
463.4 km
Semi-major
6,840.8 km
B*
3.8439e-4
RAAN
336.5378°
Arg perigee
89.3998°
Mean anomaly
270.7116°
Rev number
1,128

§ Raw data

STARLINK-379101 69961U 26157U   26262.93342051  .00012633  00000+0  38439-3 0  99912 69961  53.1599 336.5378 0000974  89.3998 270.7116 15.34399958 11288

JSON: /api/v1/satellites/69961 · /tle

For live sub-satellite position, see the globe view (requires WebGL).

§ Visibility from observer

Set your observer location to see the next 7 days of passes ≥ 10°. The values pass through the URL so the page stays shareable.

No JS? Fill the form by hand. The geolocation button needs JavaScript.